934 visiteurs
Prévisions de votre ville :
Vigilance : 31 départements Mise à jour le 19/12/2018 à 10:16 - Voir la carte

Paris Roissy CDG (95380) le 19/12/2018 à 15:00 Choisir station

10.1°C 74 % SO Rafales 22 km/h
Vit. moyenne 13 kmh/h

Relevés météo quotidiens pour la station de :

UTC
S: Synop
M: Metar
Loc T°C
(°C)
Td
(°C)
HR
(%)
Vis
(km)
Néb
(octa)
Vent
(km/h)
Pression
(mb)
Précipitations
(mm)
Temps
              MOY
10 min
DIR RAF 1h MESURE VAR SUR 3h    
S 00 h 01h 14.5 12.2 86 30 6/8 9 19 1025.4 +0.5/3h 0.0/3h
S 01 h 02h 13.9 11.8 87 19 /8 7 15 1025.1 +0.1/3h 0.0/1h
S 02 h 03h 13.9 12.1 89 17 7/8 6 17 1025.3 0.0/3h 0.0/1h
S 03 h 04h 14.2 11.2 82 35 8/8 7 19 1025.2 -0.2/3h 0.0/3h
S 04 h 05h 14.5 11.1 80 19 8/8 9 19 1025.9 +0.8/3h 0.0/1h
S 05 h 06h 13.3 12.0 92 4.9 8/8 9 22 1026.1 +0.8/3h 0.0/1h
S 06 h 07h 13.4 11.6 89 40 8/8 7 20 1026.4 +1.2/3h 0.2/12h - 0.2/3h - 0.4/24h
S 07 h 08h 13.5 11.9 90 8 8/8 9 17 1027.0 +1.1/3h 0.2/1h
S 08 h 09h 13.1 12.5 96 19 8/8 7 15 1027.7 +1.6/3h 1.0/1h
S 09 h 10h 13.8 11.8 88 40 8/8 7 17 1028.2 +1.8/3h 1.0/3h
S 10 h 11h 13.8 12.2 90 19 8/8 7 13 1028.6 +1.6/3h 0.0/1h
S 11 h 12h 14.5 12.5 88 19 8/8 7 17 1028.8 +1.1/3h 0.0/1h
S 12 h 13h 15.1 12.6 85 19 8/8 9 15 1028.5 +0.3/3h 1.0/6h
S 13 h 14h 15.0 12.5 85 19 8/8 7 19 1028.4 -0.2/3h 0.0/1h
S 14 h 15h 14.8 12.5 86 18 8/8 9 17 1028.2 -0.6/3h 0.0/1h
S 15 h 16h 14.5 12.5 88 18 8/8 7 15 1028.4 -0.1/3h 0.0/3h
S 16 h 17h 14.1 12.3 89 18 8/8 6 15 1028.5 +0.1/3h 0.0/1h
S 17 h 18h 13.5 12.1 91 29 8/8 6 13 1028.6 +0.4/3h 0.0/1h
S 18 h 19h 13.3 9.9 80 60 8/8 4 15 1028.9 +0.5/3h 1.0/12h
S 19 h 20h 13.0 10.5 85 40 8/8 4 9 1029.0 +0.5/3h 0.0/1h
S 20 h 21h 12.3 10.9 91 19 8/8 4 7 1028.7 +0.1/3h 0.0/1h
S 21 h 22h 12.0 11.1 94 5 8/8 6 11 1028.5 -0.4/3h 0.2/3h
S 22 h 23h 11.7 11.1 96 15 8/8 4 7 1028.2 -0.8/3h 0.0/1h
S 23 h 00h 11.3 10.8 97 11 8/8 4 6 1028.0 -0.7/3h 0.0/1h
evolution des temperatures
cumul des precipitations
vent moyen et rafales
pression atmospherique

Un tiret (-) signifie que les données ne sont pas disponibles.

Passez la souris sur les pictos temps pour avoir plus de précisions. Passez les flèches sur l'icône de la direction du vent pour voir la direction précise en degrés.

Les données de l'heure en cours sont disponibles à partir de H+15 minutes.


S signifie station Synop, plus complète qu'une station Metar (M). Il y a +1h de différence entre l'heure UTC et l'heure légale en hiver et +2h en été.

Td est la mesure du point de rosée.

HR est l'humidité relative/p>

Vis est la visibilité

Néb est la nébulosité du ciel (couverture nuageuse) exprimée en octas (de 0/8 à 8/8).

Vent moy 10 min donne le vent moyen sur les 10 minutes qui précèdent le relevé.

Vent raf 1h donne la rafale maximale mesurée dans l'heure qui précède le relevé.


Les données les plus anciennes remontent à avril 2014.

Les données présentées sur cette page proviennent des stations météo officielles. Les relevés sont effectués aux normes en vigueur (anémomètre à 10m de haut, thermomètre sous abri normalisé à 2m du sol...)

Météo 60 décline toute responsabilité en cas d'absence de données, d'erreurs, de mauvaise utilisation ou interprétation et n'est pas habilité à fournir des certificats intempéries.